Location: Unspecified
(0.0000°N, 0.0000°E)
Time: 12:33:08
(UTC+00:00)

Cosmos 2180 Rocket - Pass Details

Date: 27 January 2013
Orbit: 954 x 1004 km, 82.9° (Epoch: 04 December)

Event Time Altitude Azimuth Distance (km) Brightness Sun altitude
Rises 18:19:54 0° 1° (N) 3,622 7.3 -1.7°
Reaches altitude 10° 18:22:24 10° 4° (N) 2,675 6.6 -2.3°
Maximum altitude 18:28:28 71° 87° (E) 1,005 4.5 -3.7°
Drops below altitude 10° 18:34:34 10° 170° (S) 2,685 6.9 -5.2°
Sets 18:37:05 0° 172° (S) 3,636 7.6 -5.7°
